This demonstration page uses our WeatherBlox Daily Observations layout. Learn more.

Left ArrowRight Arrow

Hourly Observations for March 30, 2015

Temp ( °F °C ) Dew Point ( °F °C ) Humidity (%) Winds ( mph kmh ) Pressure ( in mb ) Visibility ( mi km ) Precip ( " mm )
12:51 am 00:51 Clear 57 13.9 20 -6.7 24 24 SSE 5 7 29.96 1015 10 16 0.00 0.00
1:51 am 01:51 Clear 55 12.8 20 -6.7 25 25 Calm 29.95 1014 10 16 0.00 0.00
2:51 am 02:51 Clear 56 13.3 20 -6.7 24 24 Calm 29.94 1014 10 16 0.00 0.00
3:51 am 03:51 Clear 55 12.8 22 -5.6 28 28 Calm 29.96 1014 10 16 0.00 0.00
4:51 am 04:51 Clear 50 10 22 -5.6 33 33 NNE 3 6 29.97 1015 10 16 0.00 0.00
5:51 am 05:51 Clear 53 11.7 23 -5 31 31 Calm 29.99 1016 10 16 0.00 0.00
6:51 am 06:51 Sunny 53 11.7 26 -3.3 35 35 SSE 3 6 30.02 1017 10 16 0.00 0.00
7:51 am 07:51 Sunny 61 16.1 26 -3.3 26 26 SSE 5 7 30.03 1017 10 16 0.00 0.00
8:51 am 08:51 Sunny 66 18.9 25 -3.9 21 21 Calm 30.04 1017 10 16 0.00 0.00
9:51 am 09:51 Sunny 75 23.9 23 -5 14 14 VRB 5 7 30.03 1017 10 16 0.00 0.00
10:51 am 10:51 Sunny 81 27.2 23 -5 12 12 NW 5 7 30.01 1016 10 16 0.00 0.00
11:51 am 11:51 Sunny 83 28.3 20 -6.7 10 10 NNW 6 9 29.99 1016 10 16 0.00 0.00
12:51 pm 12:51 Sunny 86 30 21 -6.1 9 9 VRB 3 6 29.95 1014 10 16 0.00 0.00
1:51 pm 13:51 Sunny 87 30.6 21 -6.1 9 9 NW 6 9 29.92 1013 10 16 0.00 0.00
2:51 pm 14:51 Sunny 85 29.4 23 -5 10 10 WSW 6 9 29.88 1012 10 16 0.00 0.00
3:51 pm 15:51 Sunny 85 29.4 23 -5 10 10 NW 9 15 29.86 1011 10 16 0.00 0.00
4:51 pm 16:51 Sunny 85 29.4 22 -5.6 10 10 NW 13 20 29.86 1011 10 16 0.00 0.00
5:51 pm 17:51 Sunny 80 26.7 25 -3.9 13 13 NW 6 9 29.86 1011 10 16 0.00 0.00
6:51 pm 18:51 Clear 76 24.4 25 -3.9 15 15 WNW 5 7 29.88 1012 10 16 0.00 0.00
7:51 pm 19:51 Clear 73 22.8 26 -3.3 17 17 NW 6 9 29.88 1012 10 16 0.00 0.00
8:51 pm 20:51 Clear 69 20.6 28 -2.2 22 22 NNW 6 9 29.90 1013 10 16 0.00 0.00
9:51 pm 21:51 Clear 71 21.7 25 -3.9 18 18 NNW 3 6 29.89 1012 10 16 0.00 0.00
10:51 pm 22:51 Clear 71 21.7 25 -3.9 18 18 NW 10 17 29.89 1012 10 16 0.00 0.00
11:51 pm 23:51 Clear 68 20 26 -3.3 21 21 NW 12 19 29.89 1012 10 16 0.00 0.00

Powered by AerisWeather